Location: Wellington
(41.3000°S, 174.7830°E)
Time: 12:47:01
(UTC+13:00)

Daily predictions for brighter satellites

Satellite Brightness Start Highest point End
(mag) Time Altitude Azimuth Time Altitude Azimuth Time Altitude Azimuth
MOS 1 4.3 21:13:12 10° SSE 21:19:01 74° ENE 21:24:44 10° N
Cosmos 2322 Rocket 2.9 21:15:59 10° NNE 21:20:59 33° ENE 21:26:02 10° SE
Cosmos 1741 Rocket 4.1 21:17:24 10° NNW 21:22:45 87° ENE 21:28:11 10° SSE
Cosmos 1455 4.5 21:20:08 10° NW 21:23:38 31° WSW 21:27:12 10° SSW
ADEOS Rocket 3.8 21:19:48 10° NE 21:24:38 31° ESE 21:29:26 10° S
CZ-2D R/B 3.5 21:24:03 10° S 21:28:03 79° WSW 21:31:58 10° NNW
USA 186 2.1 21:25:56 10° SSE 21:28:38 34° E 21:31:09 10° NNE
Cosmos 1184 Rocket 4.3 21:26:42 10° NNW 21:29:57 43° WSW 21:33:15 10° S
Cosmos 1515 Rocket 4.2 21:26:36 10° NNE 21:30:45 38° E 21:34:57 10° SSE
Cosmos 1939 Rocket 2.9 21:29:23 10° SSE 21:33:38 77° ENE 21:37:49 10° N
Envisat 4.1 21:28:52 10° S 21:33:52 51° WSW 21:38:47 10° NW
NOAA 11 4.4 21:31:37 10° SSE 21:37:07 56° E 21:42:31 10° N
ARGOS 4.5 21:34:32 10° SE 21:38:27 20° E 21:42:01 11° NE
USA 32 4.3 21:33:31 10° N 21:38:47 78° W 21:44:07 10° S
Cosmos 2227 4.2 21:34:19 10° SSW 21:40:04 85° ESE 21:45:43 10° NNE
Meteor 2-10 Rocket 4.0 21:35:32 10° NNW 21:40:37 65° WSW 21:45:57 10° S
Resurs 01 Rocket 2.7 21:38:31 10° SE 21:42:14 25° E 21:45:44 11° NNE
Cosmos 292 Rocket 4.3 21:38:10 10° SSW 21:42:55 59° WNW 21:47:36 10° N
Cosmos 2263 Rocket 2.5 21:38:39 10° SSW 21:44:13 53° ESE 21:49:12 13° NE
Aureole 3 Rocket 2.8 21:44:27 10° S 21:47:57 90° E 21:52:26 10° N
CZ-2C R/B 2.9 21:48:35 11° NNE 21:53:51 58° ESE 21:59:09 10° S
BREEZE-M DEB (TANK) 4.4 21:37:27 10° NW 21:54:30 90° NE 21:58:34 10° ESE
Resurs 1-3 4.1 21:51:13 10° SSE 21:55:26 41° E 21:59:37 10° N
Cosmos 1151 Rocket 3.0 21:51:20 10° N 21:55:37 85° E 22:00:01 10° S
Cosmos 2208 Rocket 4.2 21:58:49 10° SSW 22:04:05 75° WNW 22:09:01 12° N
SPOT 3 Rocket 4.2 21:59:51 10° S 22:05:02 60° WSW 22:10:08 10° NNW
Cosmos 2315 Rocket 4.1 21:58:55 10° S 22:05:22 88° WNW 22:11:39 10° N
CZ-4C R/B 4.2 22:04:33 10° SSW 22:08:23 17° SSE 22:11:55 10° ESE
H-2A R/B 3.8 22:08:52 10° NNW 22:12:23 22° NE 22:22:40 10° E
Cosmos 1356 4.5 22:12:25 25° ENE 22:13:17 28° E 22:16:21 10° SSE
Cosmos 540 Rocket 3.9 22:11:05 10° S 22:16:09 47° ESE 22:19:09 23° NE
ATLAS 3B R/B 4.0 22:18:33 18° ENE 22:19:31 19° ENE 22:24:14 10° ESE
USA 238 DEB 4.3 22:16:54 10° N 22:23:31 37° ENE 22:30:05 10° SE
USA 238 4.3 22:17:01 10° N 22:23:37 37° ENE 22:30:10 10° SE
BREEZE-M DEB (TANK) 2.1 22:24:00 10° WNW 22:28:11 62° SSW 22:29:45 17° ESE
Cosmos 1862 3.6 22:24:18 10° SSW 22:28:21 68° W 22:31:06 19° N
Cosmos 1763 Rocket 4.1 22:25:22 10° SSW 22:30:31 55° WNW 22:34:28 16° N
Atlas Centaur 2 3.6 22:24:35 10° WNW 22:32:17 39° N 22:36:40 23° NE
Cosmos 1869 Rocket 3.8 22:30:36 10° S 22:34:56 50° E 22:36:30 33° NE
ERBS 3.5 22:32:31 10° SSW 22:35:48 34° SE 22:37:00 26° E
Nimbus 7 Rocket 4.4 22:38:54 26° NNE 22:42:21 73° ESE 22:48:22 10° S
H-2A R/B 1.9 22:37:26 10° SSE 22:42:32 70° ENE 22:45:39 23° N
Cosmos 1486 Rocket 3.9 22:37:27 10° NNW 22:42:41 84° ENE 22:48:00 10° SSE
ERS-1 Rocket 4.2 22:39:43 10° SE 22:43:48 24° E 22:44:02 24° E
SL-08 R/B 4.4 22:39:25 15° N 22:44:39 84° E 22:50:55 10° S
SL-16 R/B 3.3 22:40:06 10° NW 22:45:33 47° WSW 22:51:05 10° SSE
Mayak 0.0 22:46:27 25° E 22:47:11 26° ESE 22:50:44 10° SSE
Cosmos 2360 Rocket 2.1 22:45:13 10° NNW 22:50:55 84° ENE 22:56:41 10° SSE
Lacrosse 5 rocket 3.9 22:52:19 10° S 22:53:41 12° SSE 22:55:03 10° SE
CZ-4B DEB 4.3 22:52:11 10° SSE 22:55:42 69° E 22:55:55 66° NE
Cosmos 1707 Rocket 3.5 22:55:32 46° NNE 22:56:36 62° E 23:00:59 10° SSE
Cosmos 1733 Rocket 4.3 22:53:36 10° SSE 22:57:23 26° ESE 22:57:44 26° E
Lacrosse 5 4.0 22:55:19 10° WSW 22:58:39 17° WNW 23:01:12 12° NNW
Meteor 1-26 Rocket 4.3 22:56:00 30° N 22:58:56 68° E 23:04:41 10° SSE
NOSS 2-1 (E) 4.5 22:51:08 10° SW 22:58:58 87° SE 23:01:32 37° NE
Cosmos 1242 Rocket 4.0 22:55:44 10° SSW 22:59:11 34° W 23:00:53 23° NW
Cosmos 1933 3.9 22:58:17 24° NNW 23:00:37 59° W 23:04:46 10° S
Cosmos 1844 Rocket 3.2 22:55:10 10° SSW 23:00:39 48° ESE 23:02:38 34° ENE
Cosmos 841 Rocket 4.3 22:56:15 10° SSW 23:01:20 46° WNW 23:04:12 24° NNW
Helios 1B rocket 2.3 23:00:45 52° NNE 23:01:43 83° ESE 23:05:55 10° SSW
COSMOS 2428 3.2 23:03:03 37° ENE 23:03:47 38° ENE 23:09:05 10° SE
Cosmos 2322 Rocket 3.7 22:59:43 10° NW 23:04:56 36° WSW 23:10:13 10° S
SPOT 1/Viking Rocket 4.3 23:04:32 10° SSE 23:09:21 34° E 23:09:30 34° E
Cosmos 1745 Rocket 4.1 23:05:15 21° N 23:09:44 81° W 23:16:10 10° S
Cosmos 968 Rocket 3.6 23:08:48 46° NNE 23:09:56 56° ENE 23:15:05 10° SSE
ADEOS Rocket 4.0 23:05:50 14° NNW 23:10:07 35° W 23:15:09 10° SSW
Cosmos 1386 Rocket 4.4 23:09:16 28° N 23:12:48 89° W 23:19:00 10° S
Cosmos 1709 Rocket 4.1 23:15:10 41° NNE 23:17:16 60° E 23:23:26 10° SSE
Terra 3.4 23:14:04 10° SE 23:16:50 20° ESE 23:16:50 20° ESE
Cosmos 1633 4.0 23:15:05 10° SSW 23:18:22 31° W 23:19:15 27° WNW
Resurs 01 Rocket 3.4 23:14:46 10° S 23:18:42 30° WSW 23:22:34 10° NW
ARGOS 3.8 23:13:44 10° S 23:19:00 53° WSW 23:23:31 14° NW
Spot 2 Rocket 4.1 23:16:33 10° S 23:21:36 54° WSW 23:25:12 18° NW
Cosmos 2322 3.7 23:18:11 21° NNW 23:22:06 83° WSW 23:27:52 10° SSE
Cosmos 1862 Rocket 4.1 23:23:39 44° ESE 23:23:39 44° ESE 23:27:35 10° SSE
MetOp-B 4.1 23:18:15 10° SSE 23:23:42 85° WSW 23:25:59 36° NNW
Meteor 1-25 Rocket 4.3 23:18:05 10° S 23:24:00 87° W 23:25:57 45° N
Cosmos 1606 3.0 23:25:39 60° WNW 23:26:05 66° W 23:30:04 10° S
Cosmos 2263 Rocket 4.1 23:23:28 10° SW 23:27:42 22° W 23:30:54 14° NW
CENTAUR R/B 3.7 23:28:51 31° ENE 23:28:51 31° ENE 23:34:46 10° SE
Meteor 2-6 Rocket 4.3 23:33:41 49° ENE 23:34:00 50° E 23:39:16 10° SSE
Cosmos 2333 Rocket 2.3 23:35:00 54° NE 23:35:29 56° ENE 23:41:10 10° SSE
Cosmos 2278 Rocket 3.5 23:32:03 10° S 23:36:59 29° SE 23:38:32 25° E
Cosmos 2219 Rocket 2.2 23:36:23 58° NE 23:37:02 62° ENE 23:42:41 10° SSE
IRAS Rocket 4.3 23:31:56 10° SSE 23:37:35 78° WSW 23:39:48 38° NNW
Cosmos 2181 Rocket 4.1 23:32:15 10° S 23:38:27 62° E 23:39:48 50° NE
IGS 5A 4.2 23:38:02 10° SSE 23:41:15 43° ESE 23:41:15 43° ESE
SeaSat 1 2.3 23:38:40 10° SSE 23:43:40 76° ENE 23:44:00 72° NNE
Meteor 2-21 4.4 23:43:30 54° NE 23:44:25 61° E 23:50:27 10° SSE
Gbstr 26 Del rocket 4.3 23:42:45 10° SW 23:46:13 29° SSE 23:46:55 27° SE
Cosmos 2237 Rocket 3.2 23:51:01 31° E 23:51:01 31° E 23:55:03 10° SE
Cosmos 1340 Rocket 3.3 23:50:56 57° S 23:50:56 57° S 23:54:13 10° S
Cosmos 1818 3.9 23:47:57 21° NW 23:51:27 62° SW 23:56:49 10° SSE
